User: anonymous   Login
Location: Unspecified
(0.0000°N, 0.0000°E)
Time: 17:31:06
(UTC+02:00)
Language:

ARIANE DEB (SPELDA) - Orbit

View from above orbital plane
View from above orbital plane
View from above satellite
View from above satellite

Ground track
Ground track

The orbit data is extracted from the following two-line orbital elements,

1 27402U 02015D   15089.38466279  .00002663  00000-0  23584-2 0  9992
2 27402 003.3273 120.1834 7102596 322.3807 077.2103 02.46484265113959
Epoch (UTC): 30 March 2015 09:13:54
Eccentricity: 0.7102596
inclination: 3.3273°
perigee height: 329 km
apogee height: 33213 km
right ascension of ascending node: 120.1834°
argument of perigee: 322.3807°
revolutions per day: 2.46484265
mean anomaly at epoch: 77.2103°
orbit number at epoch: 11395

The dashed part of the orbit path shows where the satellite is in the earth's shadow,  

DLR